Humidity-temperature Sensor

Selected Measurement Type: Relative Humidity

 
Relative Humidity [%]     6 entries per hour
Showing data from 3/25/2015 (00:00:00 Z) to 3/24/2015 (00:01:00 Z)
Previous Next [ Day | 3-Days | 7-Days ]
First Last
Prev [ Day | 3-Days | 7-Days ] Next
First Last

Start Time:     :
End Time:     :     
Time (in GMT) :00 :50 :40 :30 :20 :10
Previous Next [ Day | 3-Days | 7-Days ]
First Last
Prev [ Day | 3-Days | 7-Days ] Next
First Last


123 => good data
MM => data is determined as missing
-- => data not received/configured
Back to Top Back to Top
3/25/2015 00:00 to 23:10 82.32 81.49 81.64 81.72 82.24 80.76
3/24/2015 23:00 to 22:10 80.31 81.26 81.89 82.05 82.74 81.39
3/24/2015 22:00 to 21:10 82.84 82.59 82.37 82.59 81.89 82.86
3/24/2015 21:00 to 20:10 81.35 81.37 80.62 83.09 82.45 80.99
3/24/2015 20:00 to 19:10 81.18 81.43 82.10 82.16 83.16 82.89
3/24/2015 19:00 to 18:10 82.22 81.89 81.70 81.16 81.06 81.10
3/24/2015 18:00 to 17:10 81.14 81.28 81.28 81.08 81.58 81.10
3/24/2015 17:00 to 16:10 81.70 79.79 79.68 78.06 78.52 78.75
3/24/2015 16:00 to 15:10 80.41 80.14 78.46 78.40 79.04 79.06
3/24/2015 15:00 to 14:10 79.06 80.56 80.68 80.99 82.53 80.83
3/24/2015 14:00 to 13:10 84.09 81.37 82.57 83.03 82.45 82.66
3/24/2015 13:00 to 12:10 81.31 83.16 82.32 83.72 83.03 80.39
3/24/2015 12:00 to 11:10 81.85 81.62 81.62 82.28 82.41 83.40
3/24/2015 11:00 to 10:10 81.62 82.74 83.09 82.80 81.24 83.13
3/24/2015 10:00 to 9:10 82.05 81.89 82.41 81.47 81.20 81.26
3/24/2015 09:00 to 8:10 81.89 81.91 81.93 81.33 82.14 80.02
3/24/2015 08:00 to 7:10 81.58 81.18 82.34 82.32 81.28 80.93
3/24/2015 07:00 to 6:10 81.26 80.72 80.79 81.53 80.62 80.60
3/24/2015 06:00 to 5:10 80.97 81.41 81.68 81.04 80.64 80.06
3/24/2015 05:00 to 4:10 82.41 80.18 81.24 80.37 81.80 81.16
3/24/2015 04:00 to 3:10 80.58 81.66 81.39 81.53 82.66 81.01
3/24/2015 03:00 to 2:10 80.64 81.68 80.45 80.49 81.12 81.20
3/24/2015 02:00 to 1:10 82.10 81.39 80.95 79.02 79.39 79.95
3/24/2015 01:00 to 0:10 79.60 79.75 80.72 80.37 80.91 81.01